Theta_e
311 306 310 310 314 312 317 320 317 316 315 313 313 320 327 328 335 336 326 333 335 337 338 339 340 341 341 340 338 338 337 337 337 338 338 337 337 336 337 337 337 337 336 334 333 332 333 331 330
309 308 309 304 311 315 314 310 312 315 315 312 317 319 320 327 326 327 329 334 335 339 339 340 340 340 339 337 337 336 335 335 336 336 336 337 336 336 336 335 335 334 333 331 329 328 329 330 330
305 309 307 309 308 310 310 305 309 308 307 309 313 311 316 321 324 327 330 335 338 339 340 340 339 338 337 336 335 334 334 334 335 335 335 335 335 334 333 332 331 330 328 325 324 323 323 322 324
306 306 303 308 311 307 306 306 305 308 309 307 311 315 311 317 323 330 331 340 339 340 340 339 338 336 335 334 334 333 333 333 333 334 333 333 332 331 330 329 327 324 322 319 314 307 304 303 303
306 302 306 309 308 307 304 304 304 308 309 309 309 312 313 317 324 330 335 335 337 338 339 338 336 335 334 333 332 332 332 331 331 330 329 329 327 326 325 323 321 317 312 308 305 304 303 302 303
305 302 305 306 306 306 306 305 307 307 307 308 310 310 311 316 325 330 335 333 335 337 337 336 335 334 333 332 330 330 330 329 328 327 325 324 323 321 317 315 312 308 305 303 302 302 302 302 302
304 304 306 304 304 303 304 303 305 308 306 306 308 311 310 319 326 331 334 335 337 337 336 335 334 333 331 330 329 328 328 327 325 325 323 321 318 316 314 309 306 305 304 302 302 301 301 301 301
301 303 305 305 307 307 306 303 305 304 306 305 307 310 312 312 327 331 333 333 334 332 331 334 333 332 329 328 328 326 326 325 323 322 320 316 313 310 306 304 304 303 302 301 301 301 301 301 301
299 302 304 305 306 307 306 305 305 304 306 306 306 308 309 320 327 329 328 330 331 330 331 332 332 331 328 327 326 325 324 323 321 320 316 310 307 305 303 302 301 301 302 302 302 301 301 301 301
301 302 303 304 305 305 307 306 308 305 304 305 308 310 317 323 324 326 326 326 327 328 330 330 331 329 327 326 325 323 322 321 319 316 312 307 303 302 301 301 301 301 301 301 300 300 300 300 300
301 305 304 303 304 304 305 307 306 305 304 304 305 308 317 321 324 325 326 326 326 326 327 328 328 327 326 325 324 322 320 318 316 312 307 303 301 301 301 301 300 300 300 300 300 300 300 299 299
303 303 304 304 304 307 305 306 305 304 307 305 302 308 317 322 322 324 325 325 324 323 325 326 325 325 324 324 323 321 319 317 313 307 303 302 301 301 301 301 300 300 300 300 300 300 299 299 299
304 303 303 303 304 302 303 304 304 302 303 303 305 310 316 320 322 324 324 324 323 320 323 326 325 323 322 322 322 321 319 315 308 303 302 302 302 301 301 300 300 300 299 299 299 299 298 298 298
306 306 307 305 303 302 303 303 304 302 303 302 304 309 312 319 320 322 322 322 321 319 321 324 324 322 321 321 320 320 318 313 305 302 302 302 301 301 300 300 299 299 299 299 298 298 298 298 298
307 309 309 308 305 305 304 306 305 303 304 303 301 302 310 316 317 320 321 321 320 319 319 323 322 321 320 319 319 319 317 311 303 300 301 302 301 300 300 300 299 299 299 298 298 298 298 298 297
306 306 310 309 308 306 306 310 309 305 305 305 303 302 303 311 315 319 320 320 320 319 320 320 321 320 320 319 318 317 315 310 302 301 301 301 300 300 300 299 299 299 298 298 297 297 297 297 297
309 308 307 308 307 307 307 309 307 306 306 307 308 307 303 304 310 314 318 319 319 320 318 318 319 320 319 318 318 317 314 310 303 301 302 301 300 300 300 299 298 298 298 297 297 297 296 296 296
309 309 307 307 306 307 308 309 308 307 306 307 308 308 304 303 304 309 313 317 318 318 318 318 317 318 318 317 316 315 313 310 304 302 302 301 300 300 299 298 298 298 297 297 296 296 296 295 295
306 305 307 306 305 308 308 309 308 306 306 308 308 304 301 301 303 302 307 311 314 316 317 316 316 316 314 312 311 309 309 307 303 302 302 301 300 299 298 298 298 297 297 297 296 295 295 294 294
309 309 306 305 305 306 307 307 306 306 306 306 306 305 301 300 299 299 300 304 310 314 315 315 314 312 313 312 311 307 305 305 304 303 302 301 300 299 298 298 297 297 296 296 295 295 294 294 294
307 310 307 309 305 306 306 307 306 304 304 304 305 305 305 302 301 301 297 301 306 310 313 314 314 312 312 311 309 307 304 303 301 301 301 300 300 299 298 297 297 296 296 296 295 294 293 293 293
304 307 307 308 308 309 306 308 306 306 306 305 306 306 305 302 301 302 298 297 302 306 310 313 312 311 310 309 307 304 304 301 300 300 300 300 299 298 297 297 296 296 296 295 294 293 293 292 292
298 298 304 308 309 309 309 309 306 304 305 305 306 306 306 304 302 303 302 300 300 303 306 310 311 309 308 307 307 305 304 303 302 299 300 299 298 298 297 297 296 295 295 294 293 293 292 292 292
296 299 303 305 307 308 305 306 304 304 305 305 305 305 306 306 305 304 304 303 300 301 303 307 309 308 307 306 305 304 303 301 300 299 298 298 298 297 296 296 295 295 294 293 292 292 291 291 291
303 303 306 308 308 307 304 306 305 303 304 304 305 304 304 303 304 305 303 300 299 299 301 305 307 306 305 304 303 303 302 302 301 300 297 297 297 296 295 295 295 294 293 292 291 291 291 290 290
296 302 308 309 310 309 303 309 306 304 303 298 301 301 301 301 302 303 303 301 299 298 300 303 304 304 303 302 302 302 302 301 301 301 299 298 297 297 296 295 294 293 292 291 291 290 290 290 289
297 301 299 305 291 304 298 302 302 302 301 303 303 301 302 301 300 300 300 300 299 298 298 301 302 303 301 301 300 299 300 300 299 300 299 299 298 297 296 295 293 292 291 291 290 289 289 289 289
300 299 302 304 302 307 297 298 302 297 301 302 298 300 297 296 295 294 294 295 297 298 298 299 301 301 300 300 299 298 298 299 300 300 298 298 298 297 295 294 292 292 291 290 289 289 288 288 288
301 305 303 305 306 305 306 303 291 293 291 293 292 294 292 292 290 290 290 289 291 295 296 297 298 299 298 297 296 296 296 298 298 298 298 297 297 295 294 293 292 291 290 289 289 288 288 287 287
302 302 304 303 302 298 298 300 285 283 282 285 291 292 291 290 287 286 286 283 285 289 293 294 295 295 295 295 294 295 296 296 296 296 296 295 294 293 293 292 291 290 289 289 288 288 287 287 286
Wind_Speed
6 4 3 3 3 3 4 7 3 4 4 3 0 3 6 3 6 5 0 12 27 29 27 25 24 24 25 24 22 18 17 17 17 16 16 15 16 16 16 15 15 15 13 11 10 10 10 9 7
5 5 3 2 4 2 6 5 10 13 6 2 4 1 0 5 1 2 11 14 28 31 29 29 29 26 23 21 20 20 18 17 17 17 18 18 18 17 16 15 13 11 12 12 12 10 8 6 5
7 5 4 4 4 9 6 7 14 5 9 6 2 1 2 3 1 7 4 23 29 32 32 31 29 26 23 20 19 19 18 19 18 18 18 17 17 16 15 14 13 14 13 12 11 8 6 5 4
6 3 3 4 10 8 7 4 5 3 2 6 3 3 2 3 3 10 13 25 31 32 33 30 28 26 23 21 21 20 19 19 18 18 18 17 17 16 16 15 14 13 12 11 9 7 5 4 4
3 2 3 4 10 5 5 6 4 3 3 5 5 3 3 2 6 10 22 22 26 32 32 30 28 25 23 22 22 21 20 19 18 18 18 17 16 16 16 15 13 11 10 8 6 5 4 3 2
1 2 2 10 14 4 6 7 4 5 3 3 3 4 4 2 13 19 25 24 23 32 30 28 25 25 22 23 21 21 21 20 19 19 19 18 17 16 14 13 11 9 6 5 4 4 3 2 0
5 4 6 4 12 6 8 8 8 14 4 10 3 7 3 4 15 22 28 26 26 31 31 27 26 25 22 19 21 21 22 21 20 20 19 18 17 15 13 11 9 8 7 6 5 5 4 3 2
4 4 5 6 9 15 5 8 5 9 11 2 9 8 6 6 23 28 28 27 28 28 28 28 27 26 22 20 23 23 23 23 22 21 21 20 18 15 13 11 10 8 7 6 5 3 3 3 2
4 3 7 10 10 18 2 6 3 1 5 3 6 3 5 17 27 28 24 24 28 28 29 29 28 27 24 21 24 24 25 24 23 24 22 20 17 14 13 12 10 8 7 5 3 2 1 0 1
5 7 12 7 14 7 4 7 6 4 4 4 3 2 4 19 28 26 23 23 24 31 31 31 31 28 25 24 26 26 26 26 24 22 20 17 15 14 13 12 11 9 8 5 3 2 1 1 1
6 21 7 6 14 6 5 4 3 6 4 9 10 5 9 14 21 23 25 29 32 32 35 33 32 30 29 27 29 28 27 26 23 21 19 18 17 16 14 12 11 9 7 5 3 1 0 1 1
9 6 16 5 7 6 7 3 6 9 10 3 6 5 10 16 18 22 25 28 28 30 39 38 35 32 30 29 32 31 29 26 24 22 21 19 19 17 15 13 11 10 7 6 4 2 1 1 2
13 6 6 11 17 11 6 9 10 8 11 3 3 7 12 15 21 25 23 23 25 28 36 42 37 37 33 33 34 32 30 28 24 23 22 20 18 17 15 14 12 10 8 6 4 3 2 1 1
3 6 21 17 11 5 13 15 5 9 10 7 6 9 10 14 17 18 21 27 29 27 37 41 39 38 35 37 37 35 32 29 27 25 23 20 18 16 15 14 12 10 8 6 5 3 2 2 3
11 17 15 20 4 9 3 20 21 8 8 11 9 10 9 13 10 18 31 30 33 33 34 44 42 39 38 39 39 37 34 31 29 26 24 22 20 18 16 15 13 11 9 7 5 4 3 3 4
4 4 12 12 17 7 11 31 19 15 12 15 11 12 9 13 13 25 24 26 26 27 39 42 43 42 40 42 40 37 34 32 29 27 25 23 21 19 18 16 14 12 10 8 6 5 4 4 5
17 19 19 13 6 8 16 25 7 10 17 21 21 18 15 13 10 21 27 31 32 37 34 39 44 45 44 42 40 38 35 33 31 28 26 24 22 21 20 18 16 13 11 9 7 6 4 5 7
24 23 22 21 7 12 17 30 16 6 10 17 17 16 15 17 19 23 30 38 35 37 37 38 42 44 44 42 40 36 34 34 32 30 29 26 25 24 22 19 17 15 14 11 9 7 5 5 7
20 21 19 13 9 14 20 28 17 12 10 17 15 10 11 13 15 21 27 28 28 32 35 39 42 45 42 41 39 37 38 37 35 33 30 29 27 26 24 21 19 17 15 12 10 8 6 5 6
26 26 24 18 9 11 12 20 8 9 10 13 14 13 10 7 9 8 19 28 31 34 38 37 40 41 46 43 41 26 34 38 37 35 33 32 29 27 26 24 21 19 16 14 11 9 5 4 3
22 25 27 16 6 17 8 23 15 7 6 8 9 10 10 12 12 12 9 21 27 30 35 40 44 43 46 43 38 30 27 23 34 36 35 33 31 30 27 24 22 20 17 15 13 11 9 6 4
25 20 24 23 15 18 10 17 12 18 21 13 19 17 16 10 8 11 8 10 24 31 36 38 38 42 44 45 41 40 34 23 33 37 40 36 33 30 27 24 22 20 18 17 14 12 10 9 8
16 9 16 16 13 12 10 8 12 14 14 16 19 19 16 12 13 14 13 15 27 29 31 33 33 38 39 45 45 44 33 30 31 32 38 36 34 31 28 26 23 21 19 17 15 14 12 12 10
20 12 20 19 14 19 20 16 21 8 17 14 14 18 19 17 12 13 14 15 20 27 29 32 34 38 42 44 44 43 37 33 32 34 34 37 34 31 29 26 23 21 20 18 16 14 13 12 12
7 15 10 15 15 19 20 16 21 7 18 21 21 18 16 10 11 12 11 9 12 22 28 29 32 32 37 43 42 42 40 42 42 41 38 39 38 34 32 28 26 23 20 17 16 15 14 14 13
7 5 3 7 5 12 5 10 10 25 20 8 13 14 13 11 10 10 8 8 11 21 28 30 31 30 37 41 42 42 44 41 41 41 41 41 42 39 35 31 26 23 20 17 15 15 15 14 14
6 7 3 6 3 2 3 4 7 6 14 22 21 16 13 5 4 8 8 7 9 17 25 31 30 31 35 38 36 38 41 39 40 40 37 37 38 38 34 30 27 23 20 17 16 16 16 15 14
10 7 2 4 2 4 3 2 5 3 10 13 10 4 6 3 6 8 8 7 11 17 23 27 31 33 36 36 36 37 39 41 40 37 35 33 33 33 32 30 26 23 20 18 17 17 16 16 16
6 6 6 5 4 3 2 4 3 5 4 6 7 7 7 8 7 6 5 7 5 5 15 21 24 25 28 31 32 34 36 37 34 33 31 30 28 29 29 28 26 24 22 19 18 17 17 18 17
3 4 4 4 3 2 3 5 4 5 6 4 6 7 7 5 5 5 5 5 7 6 8 13 18 22 25 30 30 31 34 33 30 28 26 25 25 25 26 26 24 23 21 19 18 18 18 19 19
Wind_Direction
217 227 190 73 96 64 240 241 252 227 234 202 273 179 203 205 165 210 202 155 161 160 162 162 160 161 158 158 152 152 158 159 152 142 136 136 133 131 129 129 129 116 119 130 123 108 93 92 94
216 174 106 90 119 174 251 213 228 222 218 112 168 156 239 244 186 289 144 172 163 159 162 162 161 159 160 158 160 167 168 163 158 154 149 144 140 139 137 136 132 135 132 119 106 105 107 106 102
195 188 112 150 168 218 230 213 232 261 239 224 254 184 179 229 266 186 229 164 163 159 163 163 164 167 163 160 164 165 161 156 152 151 147 146 145 137 135 134 132 120 115 108 106 105 106 98 93
186 19 36 133 219 241 206 230 230 230 221 204 166 245 257 195 176 181 170 165 160 163 169 168 168 168 159 159 163 162 158 153 149 145 144 147 139 134 128 122 117 115 108 102 100 104 106 106 104
123 56 180 205 243 236 236 241 186 293 297 152 154 243 243 221 168 176 164 167 165 169 172 171 173 170 162 161 166 162 159 154 151 148 143 140 136 133 131 129 126 124 117 113 108 103 103 108 119
85 104 179 215 231 213 228 209 190 234 219 262 168 133 250 212 174 164 170 173 170 175 174 176 177 173 177 164 168 164 162 159 157 152 148 145 143 143 141 139 138 136 133 122 110 97 97 90 32
170 154 227 219 235 262 233 157 188 231 226 251 155 159 236 232 180 169 172 173 175 182 182 180 178 174 186 190 177 169 171 167 162 158 155 154 152 149 147 146 142 136 135 128 116 108 91 67 36
154 149 220 215 223 250 205 175 194 176 240 88 161 224 227 205 173 169 173 176 185 187 193 184 182 181 181 199 183 177 176 174 170 166 165 162 159 162 164 158 149 139 133 128 133 123 100 74 21
136 215 216 206 211 229 153 191 206 175 173 203 201 205 311 161 160 164 168 179 188 195 194 192 190 188 188 198 187 186 182 180 177 176 175 175 172 169 161 160 158 158 148 138 153 148 144 84 340
189 217 222 211 223 231 188 186 189 154 205 222 234 201 90 156 161 170 178 184 187 194 196 198 195 192 192 197 193 192 188 187 187 186 183 178 174 171 172 172 176 182 183 185 185 169 132 95 28
212 239 216 231 236 254 232 236 237 173 198 220 207 168 153 174 178 184 190 192 192 191 199 201 200 197 196 198 195 198 197 195 193 193 189 183 180 181 180 181 181 182 183 180 171 158 113 20 4
252 237 244 249 248 242 231 190 231 205 232 187 207 166 162 185 197 193 195 197 192 196 198 201 203 206 207 205 199 202 202 201 198 195 193 191 188 186 185 183 185 188 188 190 192 205 240 325 345
243 233 245 241 248 249 261 230 223 223 235 238 102 163 186 191 202 205 204 199 199 201 203 200 201 206 209 207 204 204 205 204 203 198 197 199 200 197 194 193 193 195 199 204 209 220 223 246 335
253 251 248 244 250 240 239 253 196 220 244 255 196 211 210 202 208 201 201 202 201 202 204 205 204 203 208 207 205 206 208 207 205 205 206 205 206 206 203 199 199 201 205 211 212 212 227 280 315
263 269 264 258 227 249 170 266 236 230 207 237 222 232 217 219 188 204 207 204 201 200 200 207 206 205 206 211 208 209 208 209 208 208 208 209 209 209 211 209 207 206 208 213 218 231 267 293 311
271 228 248 246 228 220 164 259 250 210 205 237 226 235 217 226 205 218 215 215 212 199 205 206 207 207 207 209 211 210 210 211 211 211 212 212 212 212 213 212 211 209 208 213 226 241 264 291 310
236 248 237 259 216 202 195 256 220 191 212 230 233 231 221 228 213 220 217 218 213 212 203 206 207 209 208 210 213 214 213 215 214 214 213 213 214 215 216 214 210 210 212 218 228 240 264 288 306
229 229 239 242 201 198 222 248 238 220 203 226 230 231 222 218 222 218 219 222 217 215 211 208 207 210 211 210 211 215 216 217 217 216 214 213 213 214 215 213 211 211 212 216 225 238 254 282 304
249 240 248 236 215 210 226 248 235 227 229 233 236 227 224 220 227 219 224 225 213 210 205 207 205 207 202 203 202 207 210 212 212 213 214 214 213 212 212 212 211 212 216 220 224 231 248 283 309
236 244 242 252 210 229 245 259 223 224 239 228 232 239 227 227 242 231 218 220 211 207 205 203 207 202 203 202 202 200 204 210 211 212 213 213 211 213 212 211 211 212 214 219 223 229 233 240 270
258 228 234 237 209 234 243 261 252 248 254 264 253 252 238 219 227 236 212 211 212 207 201 203 206 205 202 200 197 198 202 205 208 211 211 209 211 213 213 212 212 212 216 223 226 231 233 229 221
257 242 236 238 237 239 174 260 236 235 240 236 248 248 248 233 229 238 209 206 210 213 212 209 202 200 202 200 193 192 193 193 206 206 207 206 210 212 212 213 213 214 216 219 225 230 233 231 222
246 267 276 235 233 246 215 257 254 235 237 234 239 245 243 230 217 234 230 215 216 219 215 211 203 198 197 197 199 196 197 201 205 203 206 206 208 210 210 212 212 213 217 219 223 225 228 229 229
227 239 261 250 243 247 235 226 258 211 225 236 233 237 235 235 225 228 238 221 214 217 215 205 199 199 196 197 199 198 196 193 192 198 201 205 206 206 210 210 211 215 217 220 222 226 227 227 226
190 208 230 216 217 237 223 216 231 213 215 225 232 233 237 218 217 225 226 201 203 195 201 197 195 196 194 197 197 198 196 200 197 199 194 197 201 203 206 207 209 212 216 218 223 225 226 224 223
181 201 209 232 213 219 163 212 226 224 236 240 232 239 258 233 223 230 228 216 201 195 192 191 194 194 194 195 199 199 202 199 201 203 201 202 203 205 205 206 209 211 214 218 222 223 222 220 220
197 229 140 346 339 99 192 278 304 191 223 233 239 245 251 325 289 275 283 261 229 197 195 194 193 195 195 197 195 195 199 198 200 204 205 205 207 209 207 206 205 207 212 216 219 221 221 220 218
185 152 160 185 273 221 242 267 225 251 217 232 243 267 316 351 323 307 307 301 273 226 206 198 198 196 194 191 193 193 194 201 204 203 202 204 207 209 204 202 203 206 209 212 215 217 217 218 216
166 178 182 187 202 98 348 275 269 241 259 279 338 341 336 323 333 332 324 326 321 195 191 193 194 191 186 186 184 187 192 199 200 198 199 201 205 203 199 199 201 206 208 210 214 215 217 217 218
250 155 143 152 175 121 133 273 331 328 326 305 338 326 318 340 342 350 345 349 15 61 131 160 175 179 181 182 182 185 190 188 188 189 191 194 193 193 195 197 202 206 207 210 213 214 217 220 221